DW3200 Weather Reports


Display with metric or nautical units.
time (UTC)temp
F
wind
direction
speed
MPH
gust
MPH
rain 1hr
in
rain 24hr
in
rain mn
in
humidity
%
barometer
mb
20260505124504 40 164 0.0 0.0 0.00 0.00 0.15 90 1010.0
20260505123001 40 164 0.0 0.0 0.00 0.00 0.15 89 1009.9
20260505121541 41 164 0.0 0.0 0.00 0.00 0.15 90 1009.8
20260505120049 41 164 0.0 0.0 0.00 0.00 0.15 90 1009.6
20260505114530 42 164 0.0 0.0 0.00 0.00 0.15 90 1009.7
20260505113021 41 164 0.0 0.0 0.00 0.00 0.15 91 1009.7
20260505111509 41 164 0.0 0.0 0.00 0.00 0.15 90 1009.5
20260505101521 43 164 0.0 0.0 0.00 0.00 0.15 89 1009.1
20260505100026 43 164 0.0 0.0 0.00 0.00 0.14 89 1009.0
20260505094608 43 164 0.0 0.0 0.00 0.00 0.14 89 1008.9
20260505093056 44 164 0.0 0.0 0.00 0.00 0.14 88 1008.9
20260505091544 44 164 0.0 0.0 0.00 0.00 0.14 88 1008.8
20260505090049 44 164 0.0 0.0 0.00 0.00 0.14 87 1008.8
20260505084525 45 164 0.0 0.0 0.00 0.00 0.14 87 1008.7
20260505083023 46 164 0.0 0.0 0.00 0.00 0.14 87 1008.6
20260505081525 46 164 0.0 0.0 0.00 0.00 0.14 87 1008.6
20260505080038 47 164 0.0 0.0 0.00 0.00 0.14 87 1008.4
20260505074515 47 164 0.0 0.0 0.00 0.00 0.14 87 1008.4
20260505073016 47 164 0.0 0.0 0.00 0.00 0.14 89 1008.3
20260505071513 48 164 0.0 0.0 0.00 0.00 0.14 89 1008.3
20260505070013 48 164 0.0 0.0 0.00 0.00 0.14 90 1008.2
20260505064551 49 164 0.0 0.0 0.00 0.00 0.14 91 1008.1
20260505063053 48 166 0.0 0.0 0.00 0.00 0.14 91 1007.9
20260505061531 49 167 0.0 0.0 0.00 0.00 0.14 90 1007.7
20260505060028 50 167 0.0 0.0 0.00 0.00 0.14 90 1007.8
20260505054511 50 167 0.0 0.0 0.00 0.00 0.13 90 1007.7
20260505053015 50 167 0.0 0.0 0.00 0.00 0.12 89 1007.6
20260505051607 51 167 0.0 0.0 0.00 0.00 0.11 89 1007.6
20260505050118 52 167 0.0 0.0 0.00 0.00 0.09 89 1007.6
20260505041536 54 167 0.0 0.0 0.00 0.00 0.03 88 1007.4
20260505034556 55 167 0.0 0.0 0.00 0.00 0.16 86 1007.1
20260505033045 55 165 0.0 0.0 0.00 0.00 0.14 86 1006.8
20260505031545 56 165 0.0 0.0 0.00 0.00 0.12 84 1006.3
20260505030034 56 165 0.0 0.0 0.00 0.00 0.10 83 1005.9
20260505024529 57 165 0.0 0.0 0.00 0.00 0.09 81 1005.8
20260505023033 56 167 1.0 0.0 0.00 0.00 0.07 81 1005.5
20260505021528 57 179 2.0 0.0 0.00 0.00 0.06 82 1005.3
20260505020026 57 84 4.0 0.0 0.00 0.00 0.04 81 1005.6
20260505014524 56 34 5.0 0.0 0.00 0.00 0.03 79 1006.3
20260505013025 57 46 2.0 0.0 0.00 0.00 0.01 74 1005.9
20260505011529 58 44 8.0 0.0 0.00 0.00 0.00 67 1006.1
20260505010020 71 319 6.0 0.0 0.00 0.00 0.00 38 1005.4
20260505004532 74 280 6.0 0.0 0.00 0.00 0.00 39 1004.7
20260505003106 74 290 7.0 0.0 0.00 0.00 0.00 36 1004.7
20260505001632 74 288 7.0 0.0 0.00 0.00 0.00 33 1004.8
20260505000051 73 301 7.0 0.0 0.00 0.00 0.00 33 1004.9
20260504234558 74 292 5.0 0.0 0.00 0.00 0.00 35 1004.9
20260504233023 73 306 7.0 0.0 0.00 0.00 0.00 37 1004.9
20260504231524 72 306 6.0 0.0 0.00 0.00 0.00 38 1005.1
20260504230002 73 283 5.0 0.0 0.00 0.00 0.00 34 1005.2
20260504224501 73 280 7.0 0.0 0.00 0.00 0.00 31 1005.3
20260504223048 75 278 4.0 0.0 0.00 0.00 0.00 30 1005.4
20260504221547 74 278 6.0 0.0 0.00 0.00 0.00 30 1005.6
20260504220044 74 279 5.0 0.0 0.00 0.00 0.00 33 1005.6
20260504214543 74 279 5.0 0.0 0.00 0.00 0.00 34 1005.9
20260504213059 74 283 5.0 0.0 0.00 0.00 0.00 35 1005.9
20260504211540 74 290 4.0 0.0 0.00 0.00 0.00 35 1006.0
20260504210037 73 284 4.0 0.0 0.00 0.00 0.00 36 1006.2
20260504204537 72 307 6.0 0.0 0.00 0.00 0.00 37 1006.2
20260504203017 73 284 2.0 0.0 0.00 0.00 0.00 40 1006.4
20260504201522 72 296 3.0 0.0 0.00 0.00 0.00 40 1006.5
20260504200057 73 279 5.0 0.0 0.00 0.00 0.00 35 1006.5
20260504194604 72 300 5.0 0.0 0.00 0.00 0.00 39 1006.5
20260504193048 71 300 4.0 0.0 0.00 0.00 0.00 39 1006.6
20260504191535 71 294 2.0 0.0 0.00 0.00 0.00 37 1006.6
20260504190016 71 288 3.0 0.0 0.00 0.00 0.00 37 1006.8
20260504184515 70 295 2.0 0.0 0.00 0.00 0.00 37 1007.0
20260504183054 70 284 2.0 0.0 0.00 0.00 0.00 38 1007.0
20260504181552 68 281 3.0 0.0 0.00 0.00 0.00 36 1007.2
20260504180033 69 246 1.0 0.0 0.00 0.00 0.00 35 1007.3
20260504174532 68 240 1.0 0.0 0.00 0.00 0.00 38 1007.3
20260504173023 67 209 2.0 0.0 0.00 0.00 0.00 40 1007.4
20260504171517 67 250 1.0 0.0 0.00 0.00 0.00 41 1007.5